Tracking 19224 objects as of 22-Jul-2018
HD Live streaming from Space Station
objects crossing your sky now

FENGYUN 1C DEB

Track FENGYUN 1C DEB now!
10-day predictions


NORAD ID: 30442
Int'l Code: 1999-025AFD
Perigee: 814.3 km
Apogee: 915.7 km
Inclination: 99.0 °
Period: 102.1 minutes
Semi major axis: 7235 km
RCS: 0.0217 m2 (small)
Launch date: May 10, 1999
Source: People's Republic of China (PRC)
Launch site: Taiyaun Space Center, China (TSC)

Note: This is SATELLITE DEBRIS
aabbcc
Your satellite tracking list
Your tracking list is empty




NASA's NSSDC Master Catalog

Two Line Element Set (TLE):
1 30442U 99025AFD 18202.61963382  .00000433  00000-0  26250-3 0  9997
2 30442  98.9909 259.1138 0070042  42.5612 121.0350 14.10446589590177
Source of the keplerian elements: AFSPC